Regional Weather Roundup
Issued by NWS

Home | Current Version | Previous Version | Graphics & Text | Print | Product List | Glossary On
Versions: 1 2 3 4 5 6 7 8 9 10 11 12 13 14 15 16 17 18 19 20 21 22 23 24 25 26 27 28 29 30 31 32 33 34 35 36 37 38 39 40 41 42 43 44 45 46 47 48 49 50
000
ASUS45 KSLC 242210
RWRUT

UTAH REGIONAL WEATHER ROUNDUP
NATIONAL WEATHER SERVICE SALT LAKE CITY UT
400 PM MDT SUN MAY 24 2015

UTZ001>011-023>025-242300-

NORTHERN UTAH

CITY           SKY/WX    TMP DP  RH WIND       PRES   REMARKS
BRIGHAM CITY   PTSUNNY   64  45  50 S9        29.90F
HILL AFB       MOSUNNY   58  51  79 SE7       29.92F
LOGAN          PTSUNNY   62  47  57 NW15      29.89S
OGDEN          MOSUNNY   60  49  66 S10       29.90F
PROVO AIRPORT  MOSUNNY   61  43  51 VRB6      29.92F
SALT LAKE CITY PTSUNNY   64  46  52 NW6       29.89F
VERNAL         LGT RAIN  47  42  83 NE7       29.94F
WENDOVER       CLOUDY    54  45  71 W12       29.95R
HEBER CITY     CLOUDY    61  39  44 W10       29.90F
WEST JORDAN    PTSUNNY   63  45  51 NW8       29.92F

$$

UTZ012>022-026-027-242300-

SOUTHERN/CENTRAL UTAH

CITY           SKY/WX    TMP DP  RH WIND       PRES   REMARKS
BLANDING       PTSUNNY   56  43  60 SE5       30.02F
BRYCE CANYON   PTSUNNY   57  34  41 W6        30.01S
CEDAR CITY     MOSUNNY   58  42  55 W6        29.95F
DELTA          PTSUNNY   63  41  43 E6        29.92F
HANKSVILLE     CLOUDY    68  34  28 W6        29.88F
MILFORD        LGT RAIN  57  49  74 W14G21    29.93F
MOAB/CYNLANDS  SUNNY     69  37  30 W13       29.85F
PRICE          CLOUDY    63  29  27 CALM      29.88F
ST GEORGE      PTCLDY    70  45  40 N9        29.90F

$$

REGIONAL REPORTS     COLORADO/ARIZONA

CITY           SKY/WX    TMP DP  RH WIND       PRES   REMARKS
CRAIG, CO      LGT RAIN  44  40  85 W7        29.95F
GRAND JUNCTION LGT RAIN  55  45  68 N16       29.89S
RIFLE          LGT RAIN  49  41  74 NE5       29.95F
MONTROSE       LGT RAIN  52  41  66 NE5       29.94S
CORTEZ         SUNNY     59  38  45 W12G20    29.95F
PAGE, AZ       MOSUNNY   66  48  52 VRB5      29.90F
GRAND CANYON   PTSUNNY   55  42  61 NW9       30.04F
KINGMAN        CLOUDY    76  36  23 VRB7      29.91F
FLAGSTAFF      CLOUDY    54  36  50 W7        30.04F

$$

REGIONAL REPORTS    NEVADA/IDAHO/WYOMING

CITY           SKY/WX    TMP DP  RH WIND       PRES   REMARKS
LAS VEGAS, NV  PTSUNNY   77  45  32 S15G25    29.81F
ELY            MOSUNNY   59  40  49 SW3       29.98F
ELKO           CLOUDY    57  49  74 SW5       29.96F
POCATELLO, ID  CLOUDY    54  49  83 S7        29.94F
BURLEY         LGT RAIN  54  47  77 N7        29.92R
EVANSTON, WY   LGT RAIN  47  40  76 NW7       29.96R
ROCK SPRINGS   LGT RAIN  47  40  76 VRB3      29.95S
KEMMERER       RAIN      43  39  87 CALM      29.96F

$$


USA.gov is the U.S. government's official web portal to all federal, state and local government web resources and services.